TimeEDT,TemperatureF,Dew PointF,Humidity,Sea Level PressureIn,VisibilityMPH,Wind Direction,Wind SpeedMPH,Gust SpeedMPH,PrecipitationIn,Events,Conditions,WindDirDegrees,DateUTC
12:14 AM,66.0,66.0,100,29.80,10.0,SE,3.5,-,N/A,,Overcast,130,2013-10-06 04:14:00
12:35 AM,65.7,65.7,100,29.79,10.0,SE,4.6,-,N/A,,Overcast,140,2013-10-06 04:35:00
12:55 AM,65.5,65.5,100,29.79,7.0,Calm,Calm,-,N/A,,Overcast,0,2013-10-06 04:55:00
1:14 AM,65.5,65.5,100,29.79,4.0,SSE,3.5,-,0.04,Rain,Heavy Rain,160,2013-10-06 05:14:00
1:35 AM,65.5,65.5,100,29.78,7.0,ESE,6.9,-,0.06,Rain,Rain,110,2013-10-06 05:35:00
1:55 AM,65.7,65.7,100,29.78,10.0,ESE,6.9,-,0.06,,Overcast,120,2013-10-06 05:55:00
2:14 AM,66.2,66.2,100,29.77,10.0,SE,4.6,-,N/A,,Overcast,140,2013-10-06 06:14:00
2:35 AM,67.3,67.3,100,29.77,10.0,SW,5.8,-,N/A,,Overcast,220,2013-10-06 06:35:00
2:55 AM,67.1,67.1,100,29.76,10.0,Calm,Calm,-,N/A,,Overcast,0,2013-10-06 06:55:00
3:14 AM,67.1,67.1,100,29.75,10.0,South,3.5,-,N/A,,Overcast,170,2013-10-06 07:14:00
3:35 AM,67.1,67.1,100,29.76,10.0,SSW,6.9,-,N/A,,Overcast,210,2013-10-06 07:35:00
3:55 AM,67.1,67.1,100,29.75,10.0,SSW,8.1,-,N/A,,Overcast,210,2013-10-06 07:55:00
4:14 AM,67.1,67.1,100,29.75,10.0,SW,4.6,-,N/A,,Overcast,220,2013-10-06 08:14:00
4:35 AM,67.1,67.1,100,29.74,7.0,SSE,4.6,-,N/A,,Overcast,150,2013-10-06 08:35:00
4:55 AM,67.1,67.1,100,29.73,5.0,SSE,6.9,-,N/A,,Overcast,160,2013-10-06 08:55:00
5:14 AM,67.1,67.1,100,29.74,7.0,South,5.8,-,N/A,,Overcast,170,2013-10-06 09:14:00
5:35 AM,66.9,66.9,100,29.73,5.0,South,4.6,-,N/A,,Overcast,170,2013-10-06 09:35:00
5:55 AM,66.7,66.7,100,29.73,5.0,SSE,4.6,-,N/A,,Overcast,150,2013-10-06 09:55:00
6:14 AM,66.7,66.7,100,29.73,5.0,SSE,4.6,-,N/A,,Overcast,150,2013-10-06 10:14:00
6:35 AM,66.7,66.7,100,29.73,7.0,SE,4.6,-,N/A,,Overcast,140,2013-10-06 10:35:00
6:55 AM,66.7,66.7,100,29.73,5.0,SSE,8.1,-,N/A,,Overcast,150,2013-10-06 10:55:00
7:14 AM,66.6,66.6,100,29.72,5.0,SSE,6.9,-,N/A,,Overcast,150,2013-10-06 11:14:00
7:35 AM,66.4,66.4,100,29.72,5.0,SE,9.2,-,N/A,,Overcast,140,2013-10-06 11:35:00
7:55 AM,66.4,66.4,100,29.72,5.0,SE,9.2,18.4,N/A,,Overcast,140,2013-10-06 11:55:00
8:14 AM,66.4,66.4,100,29.72,5.0,SE,8.1,-,N/A,,Overcast,140,2013-10-06 12:14:00
8:35 AM,66.4,66.4,100,29.71,3.0,SSE,6.9,-,0.01,Rain,Rain,150,2013-10-06 12:35:00
8:55 AM,66.4,66.4,100,29.71,5.0,SSE,10.4,17.3,0.01,,Overcast,150,2013-10-06 12:55:00
9:14 AM,66.7,66.7,100,29.69,5.0,SSE,6.9,-,N/A,,Overcast,150,2013-10-06 13:14:00
9:35 AM,66.7,66.7,100,29.69,7.0,SSE,8.1,-,N/A,,Overcast,150,2013-10-06 13:35:00
9:55 AM,64.4,64.4,100,29.70,7.0,West,13.8,-,0.01,Rain,Light Rain,270,2013-10-06 13:55:00
10:15 AM,63.5,63.5,100,29.70,10.0,West,8.1,-,N/A,,Overcast,260,2013-10-06 14:15:00
10:35 AM,63.1,63.1,100,29.71,10.0,West,11.5,-,N/A,,Overcast,270,2013-10-06 14:35:00
10:55 AM,62.1,62.1,100,29.71,10.0,West,6.9,-,N/A,,Overcast,260,2013-10-06 14:55:00
11:14 AM,61.9,61.9,100,29.70,10.0,West,6.9,-,N/A,,Overcast,270,2013-10-06 15:14:00
11:35 AM,61.9,61.9,100,29.69,10.0,West,8.1,-,N/A,,Overcast,270,2013-10-06 15:35:00
11:54 AM,60.6,60.6,100,29.71,2.5,WSW,9.2,-,N/A,Rain,Light Rain,240,2013-10-06 15:54:00
12:15 PM,59.0,59.0,100,29.72,2.5,WSW,9.2,-,N/A,Rain,Rain,250,2013-10-06 16:15:00
12:35 PM,58.6,58.6,100,29.72,7.0,WSW,8.1,-,0.01,Rain,Light Rain,240,2013-10-06 16:35:00
12:54 PM,58.1,58.1,100,29.72,10.0,WSW,12.7,18.4,0.02,Rain,Light Rain,250,2013-10-06 16:54:00
1:15 PM,57.2,57.2,100,29.72,10.0,WSW,10.4,-,0.01,Rain,Light Rain,250,2013-10-06 17:15:00
1:35 PM,57.2,57.2,100,29.72,7.0,WSW,9.2,-,0.02,Rain,Rain,250,2013-10-06 17:35:00
1:54 PM,57.0,57.0,100,29.72,10.0,SW,5.8,-,0.03,Rain,Light Rain,220,2013-10-06 17:54:00
2:15 PM,56.5,56.5,100,29.70,7.0,West,6.9,-,0.01,Rain,Light Rain,260,2013-10-06 18:15:00
2:35 PM,56.3,56.3,100,29.70,10.0,West,6.9,-,0.02,Rain,Rain,280,2013-10-06 18:35:00
2:54 PM,55.9,55.9,100,29.69,10.0,West,6.9,-,0.04,Rain,Light Rain,280,2013-10-06 18:54:00
3:15 PM,55.6,55.6,100,29.69,10.0,WNW,9.2,-,0.01,Rain,Rain,290,2013-10-06 19:15:00
3:35 PM,55.4,55.4,100,29.69,5.0,West,6.9,-,0.01,Rain,Light Rain,270,2013-10-06 19:35:00
3:54 PM,55.9,55.6,99,29.68,7.0,WSW,8.1,-,0.01,,Overcast,240,2013-10-06 19:54:00
4:15 PM,57.2,55.9,96,29.68,10.0,West,8.1,-,N/A,,Overcast,260,2013-10-06 20:15:00
4:35 PM,56.5,54.9,94,29.67,10.0,WNW,10.4,-,N/A,,Overcast,290,2013-10-06 20:35:00
4:54 PM,56.8,55.4,95,29.67,10.0,West,6.9,-,N/A,,Overcast,260,2013-10-06 20:54:00
5:15 PM,57.4,55.6,94,29.68,10.0,West,6.9,-,N/A,,Overcast,260,2013-10-06 21:15:00
5:35 PM,57.2,55.2,93,29.68,10.0,WSW,6.9,-,N/A,,Mostly Cloudy,250,2013-10-06 21:35:00
5:54 PM,56.8,55.6,96,29.68,10.0,WSW,4.6,-,N/A,,Mostly Cloudy,250,2013-10-06 21:54:00
6:15 PM,57.6,56.5,96,29.68,10.0,SW,3.5,-,N/A,,Scattered Clouds,230,2013-10-06 22:15:00
6:35 PM,57.2,55.4,94,29.68,10.0,WSW,5.8,-,N/A,,Scattered Clouds,240,2013-10-06 22:35:00
6:54 PM,56.8,55.8,96,29.69,10.0,WSW,6.9,-,N/A,,Mostly Cloudy,250,2013-10-06 22:54:00
7:15 PM,55.9,55.4,98,29.68,10.0,WSW,4.6,-,N/A,,Mostly Cloudy,250,2013-10-06 23:15:00
7:35 PM,54.1,54.1,100,29.69,10.0,SW,3.5,-,N/A,,Clear,220,2013-10-06 23:35:00
7:54 PM,54.0,54.0,100,29.69,10.0,WSW,5.8,-,N/A,,Clear,240,2013-10-06 23:54:00
8:15 PM,52.9,52.9,100,29.69,10.0,Calm,Calm,-,N/A,,Clear,0,2013-10-07 00:15:00
8:35 PM,52.3,51.6,97,29.69,10.0,West,5.8,-,N/A,,Clear,260,2013-10-07 00:35:00
8:54 PM,51.1,51.1,100,29.69,10.0,WSW,3.5,-,N/A,,Clear,250,2013-10-07 00:54:00
9:15 PM,50.4,50.4,100,29.69,10.0,WSW,4.6,-,N/A,,Clear,240,2013-10-07 01:15:00
9:35 PM,50.0,50.0,100,29.69,10.0,WSW,3.5,-,N/A,,Clear,250,2013-10-07 01:35:00
9:54 PM,49.5,49.5,100,29.69,10.0,Calm,Calm,-,N/A,,Clear,0,2013-10-07 01:54:00
10:15 PM,48.7,48.7,100,29.69,10.0,Calm,Calm,-,N/A,,Clear,0,2013-10-07 02:15:00
10:35 PM,48.4,48.4,100,29.69,10.0,Calm,Calm,-,N/A,,Clear,0,2013-10-07 02:35:00
10:55 PM,47.1,47.1,100,29.68,10.0,Calm,Calm,-,N/A,,Clear,0,2013-10-07 02:55:00
11:15 PM,47.3,47.3,100,29.68,10.0,Calm,Calm,-,N/A,,Clear,0,2013-10-07 03:15:00
11:34 PM,46.2,46.2,100,29.68,7.0,Calm,Calm,-,N/A,,Clear,0,2013-10-07 03:34:00
11:55 PM,45.0,45.0,100,29.68,10.0,Calm,Calm,-,N/A,,Clear,0,2013-10-07 03:55:00